STARLINK-32859, 62861

Orbit data source: Space-Track

STARLINK-32859, 62861 is a payload satellite owned by SpaceX/Seattle (US) in LEO that was launched on Sat, 01 Feb 2025 UTC via an FALCON 9 launch vehicle from the Air Force Western Test Range (AFWTR). Payload-class satellites include a variety of spacecraft equipped with specific instruments for various scientific and technological missions. These include communications satellites like Starlink; space stations such as the ISS; scientific satellites like the Hubble; Earth observation satellites from companies like Planet Labs, Umbra, and HawkEye 360; GPS; miniature CubeSats for education and research; and military/defense satellites.

Loading next visibility...
Identifier
62861, 2025-022H
Orbit
LEO
Last TLE update
6 hours ago
Origin
Manufacturer
SpaceX/Seattle
Mission
Operational Commercial Communications
Bus & Motor
STARLINK V2M, Unknown motor
Mass
730 kg wet, ~700 kg dry
Launch date (UTC)
2025-02-01 (5 months ago)
Launch vehicle
FALCON 9
Launch site
Air Force Western Test Range (AFWTR)
Object type
Payload
Rocket body
Debris
Shape & HBR
Box + 2 Pan, 29 m
Radar Cross Section
33.884 m², Large (>1 m²)

Expand to show TLE details & history

TLE from 6 hours ago
0 STARLINK-32859
1 62861U 25022H   25182.09474930 -.00063656  00000-0 -16047-2 0  9996
2 62861  53.1575 218.6875 0000796 146.3489 213.7567 15.39431311 24081
Epoch: 2025-07-01T02:16Z
TLE epoch observation values (Epoch: 2025-07-01T02:16:26.339Z)
Latitude
0.00002°
Longitude
-94.81736°
Altitude
449.145 km
Speed
7.644 km/s
True Right ascension
14h 34m 45s
True Declination
0° 00' 00"
Sunlit
Object was in full shadow at epoch
Visualization orbit readout
Latitude
38.47587°
Longitude
-59.77346°
Altitude
451.22 km
Speed
7.647 km/s
Apparent Right ascension
12h 59m 14s
Apparent Declination
2° 00' 03"
Sunlit
Object is in full shadow
Visualization observer readout
Local Sidereal Time
20:21:44
Azimuth
285.118° WNW
Elevation
-14.337°
Doppler factor
1
Orbital elements
Apogee altitude
448.591 km
Perigee altitude
447.504 km
Semi-major axis
6,826.185 km
Eccentricity
0.00008
Inclination
53.1575°
RAAN
218.6875°
Arg. of periapsis
146.3489°
True anomaly
Unknown
Mean anomaly
213.7567°
Eccentric anomaly
Unknown
Mean motion
3.84836 °/min
Orbital period
93.55 mins
BSTAR
-0.0016047
Loading maneuver chart data...
Loading SW <> Apogee altitude chart data...
Loading historical data...
Loading historical data...
Loading historical data...
Loading historical data...
Loading historical data...
Loading historical data...
Loading historical data...

STARLINK-32859 Visibility forecast

Observer location: undefined°, undefined°

Span
Click to sort rows by Start time (UTC) header in descending order
Start Az.
Max El. time (UTC)
Max El. Az.
Max El.
End time (UTC)
End Az.
4 mins2025-07-01 10:30:34.341Z346.672° N2025-07-01 10:32:34.341Z25.569° NE16.018°2025-07-01 10:34:34.341Z61.72° ENE
5 mins2025-07-01 12:08:34.341Z313.525° NW2025-07-01 12:10:34.341Z116.107° SE42.518°2025-07-01 12:13:34.341Z128.767° SE
5 mins2025-07-02 04:57:34.341Z219.674° SW2025-07-02 04:59:34.341Z93.76° ESE43.313°2025-07-02 05:02:34.341Z53.167° ENE
|